"Sample Date","Sample Time","Sample Value","Units","Flow Rate","Sample Interval","Number Channels","Micron Size 0","Counts/Channel 0","Micron Size 1","Counts/Channel 1","Micron Size 2","Counts/Channel 2","Micron Size 3","Counts/Channel 3","Micron Size 4","Counts/Channel 4","Micron Size 5","Counts/Channel 5","Micron Size 6","Counts/Channel 6","Micron Size 7","Counts/Channel 7","Micron Size 8","Counts/Channel 8","Micron Size 9","Counts/Channel 9","Micron Size 10","Counts/Channel 10","Micron Size 11","Counts/Channel 11","Micron Size 12","Counts/Channel 12","Micron Size 13","Counts/Channel 13","Micron Size 14","Counts/Channel 14","Micron Size 15","Counts/Channel 15","Micron Size 16","Counts/Channel 16","Micron Size 17","Counts/Channel 17","Micron Size 18","Counts/Channel 18","Micron Size 19","Counts/Channel 19","Micron Size 20","Counts/Channel 20","Micron Size 21","Counts/Channel 21","Micron Size 22","Counts/Channel 22","Micron Size 23","Counts/Channel 23","Micron Size 24","Counts/Channel 24","Micron Size 25","Counts/Channel 25","Micron Size 26","Counts/Channel 26","Micron Size 27","Counts/Channel 27","Micron Size 28","Counts/Channel 28","Micron Size 29","Counts/Channel 29","Micron Size 30","Counts/Channel 30","Micron Size 31","Counts/Channel 31"
"04/04/08","22:00:04",40431.000,"cc",28283.945,6.00,6,0.100,34962.000,0.200,2940.000,0.300,1089.000,0.500,1068.000,1.000,372.000,5.000,0
"04/04/08","22:00:10",41939.000,"cc",28302.215,6.00,6,0.100,37003.000,0.200,2794.000,0.300,970.000,0.500,845.000,1.000,327.000,5.000,0
"04/04/08","22:00:16",172194.000,"cc",28322.732,6.00,6,0.100,138209.000,0.200,30056.000,0.300,2405.000,0.500,1125.000,1.000,399.000,5.000,0
"04/04/08","22:00:22",369739.000,"cc",28356.873,6.00,6,0.100,315401.000,0.200,49592.000,0.300,3164.000,0.500,1210.000,1.000,372.000,5.000,0
"04/04/08","22:00:28",300592.000,"cc",28288.678,6.00,6,0.100,260019.000,0.200,35876.000,0.300,2912.000,0.500,1368.000,1.000,417.000,5.000,0
"04/04/08","22:00:34",231991.000,"cc",28301.426,6.00,6,0.100,201989.000,0.200,25579.000,0.300,2547.000,0.500,1453.000,1.000,423.000,5.000,0
"04/04/08","22:00:40",276744.000,"cc",28315.926,6.00,6,0.100,239891.000,0.200,32155.000,0.300,2784.000,0.500,1438.000,1.000,476.000,5.000,0
"04/04/08","22:00:46",182334.000,"cc",28316.170,6.00,6,0.100,160202.000,0.200,18650.000,0.300,1882.000,0.500,1184.000,1.000,416.000,5.000,0
"04/04/08","22:00:52",231178.000,"cc",28363.100,6.00,6,0.100,202646.000,0.200,24942.000,0.300,2063.000,0.500,1140.000,1.000,387.000,5.000,0
"04/04/08","22:00:58",267245.000,"cc",28276.744,6.00,6,0.100,232299.000,0.200,30179.000,0.300,2820.000,0.500,1473.000,1.000,474.000,5.000,0
"04/04/08","22:01:04",220389.000,"cc",28324.168,6.00,6,0.100,191918.000,0.200,24075.000,0.300,2481.000,0.500,1462.000,1.000,453.000,5.000,0
"04/04/08","22:01:10",280408.000,"cc",28335.102,6.00,6,0.100,243629.000,0.200,32704.000,0.300,2523.000,0.500,1169.000,1.000,383.000,5.000,0
"04/04/08","22:01:16",259231.000,"cc",28272.449,6.00,6,0.100,225777.000,0.200,29385.000,0.300,2458.000,0.500,1247.000,1.000,364.000,5.000,0
"04/04/08","22:01:22",263284.000,"cc",28311.988,6.00,6,0.100,228523.000,0.200,30303.000,0.300,2693.000,0.500,1353.000,1.000,412.000,5.000,0
"04/04/08","22:01:28",215470.000,"cc",28338.652,6.00,6,0.100,189117.000,0.200,23059.000,0.300,1919.000,0.500,1054.000,1.000,321.000,5.000,0
"04/04/08","22:01:34",190636.000,"cc",28337.496,6.00,6,0.100,167738.000,0.200,19539.000,0.300,1905.000,0.500,1078.000,1.000,376.000,5.000,0
"04/04/08","22:01:40",244970.000,"cc",28321.941,6.00,6,0.100,213838.000,0.200,27483.000,0.300,2186.000,0.500,1137.000,1.000,326.000,5.000,0
"04/04/08","22:01:46",338070.000,"cc",28294.965,6.00,6,0.100,291115.000,0.200,42226.000,0.300,3057.000,0.500,1263.000,1.000,409.000,5.000,0
"04/04/08","22:01:52",283480.000,"cc",28299.959,6.00,6,0.100,244773.000,0.200,33597.000,0.300,3055.000,0.500,1550.000,1.000,505.000,5.000,0
"04/04/08","22:01:58",283816.000,"cc",28317.518,6.00,6,0.100,244877.000,0.200,33602.000,0.300,3103.000,0.500,1671.000,1.000,563.000,5.000,0
"04/04/08","22:02:04",217180.000,"cc",28392.514,6.00,6,0.100,189826.000,0.200,23382.000,0.300,2203.000,0.500,1330.000,1.000,439.000,5.000,0
"04/04/08","22:02:10",177763.000,"cc",28328.555,6.00,6,0.100,156075.000,0.200,18261.000,0.300,1834.000,0.500,1196.000,1.000,397.000,5.000,0
"04/04/08","22:02:16",133624.000,"cc",28264.379,6.00,6,0.100,117410.000,0.200,12737.000,0.300,1760.000,0.500,1259.000,1.000,458.000,5.000,0
"04/04/08","22:02:22",149503.000,"cc",28230.277,6.00,6,0.100,131003.000,0.200,14978.000,0.300,1836.000,0.500,1257.000,1.000,429.000,5.000,0
"04/04/08","22:02:28",224498.000,"cc",28326.039,6.00,6,0.100,195599.000,0.200,24664.000,0.300,2364.000,0.500,1368.000,1.000,503.000,5.000,0
"04/04/08","22:02:34",268840.000,"cc",28332.514,6.00,6,0.100,233584.000,0.200,30723.000,0.300,2685.000,0.500,1383.000,1.000,465.000,5.000,0
"04/04/08","22:02:40",231403.000,"cc",28343.592,6.00,6,0.100,202390.000,0.200,24992.000,0.300,2251.000,0.500,1319.000,1.000,451.000,5.000,0
"04/04/08","22:02:46",231767.000,"cc",28339.139,6.00,6,0.100,203085.000,0.200,24785.000,0.300,2253.000,0.500,1214.000,1.000,430.000,5.000,0
"04/04/08","22:02:52",197387.000,"cc",28297.262,6.00,6,0.100,172072.000,0.200,20316.000,0.300,2650.000,0.500,1739.000,1.000,610.000,5.000,0
"04/04/08","22:02:58",179053.000,"cc",28351.844,6.00,6,0.100,155950.000,0.200,18291.000,0.300,2450.000,0.500,1760.000,1.000,602.000,5.000,0
"04/04/08","22:03:04",163442.000,"cc",28274.176,6.00,6,0.100,142805.000,0.200,16388.000,0.300,2166.000,0.500,1519.000,1.000,564.000,5.000,0
"04/04/08","22:03:10",169285.000,"cc",28298.525,6.00,6,0.100,148041.000,0.200,17022.000,0.300,2250.000,0.500,1477.000,1.000,495.000,5.000,0
"04/04/08","22:03:16",225391.000,"cc",28389.898,6.00,6,0.100,197120.000,0.200,24226.000,0.300,2321.000,0.500,1295.000,1.000,429.000,5.000,0
"04/04/08","22:03:22",174899.000,"cc",28248.779,6.00,6,0.100,154619.000,0.200,17293.000,0.300,1717.000,0.500,951.000,1.000,319.000,5.000,0
"04/04/08","22:03:28",190498.000,"cc",28297.830,6.00,6,0.100,167352.000,0.200,19246.000,0.300,2173.000,0.500,1295.000,1.000,432.000,5.000,0
"04/04/08","22:03:34",142318.000,"cc",28341.850,6.00,6,0.100,125768.000,0.200,13482.000,0.300,1626.000,0.500,1087.000,1.000,355.000,5.000,0
"04/04/08","22:03:40",114846.000,"cc",28290.818,6.00,6,0.100,101612.000,0.200,10355.000,0.300,1490.000,0.500,1029.000,1.000,360.000,5.000,0
"04/04/08","22:03:46",116337.000,"cc",28380.731,6.00,6,0.100,102316.000,0.200,10885.000,0.300,1669.000,0.500,1119.000,1.000,348.000,5.000,0
"04/04/08","22:03:52",98219.000,"cc",28245.260,6.00,6,0.100,86548.000,0.200,8748.000,0.300,1509.000,0.500,1053.000,1.000,361.000,5.000,0
"04/04/08","22:03:58",138048.000,"cc",28277.422,6.00,6,0.100,121961.000,0.200,12918.000,0.300,1664.000,0.500,1130.000,1.000,375.000,5.000,0
"04/04/08","22:04:04",151352.000,"cc",28298.272,6.00,6,0.100,132975.000,0.200,14544.000,0.300,2012.000,0.500,1368.000,1.000,453.000,5.000,0
"04/04/08","22:04:10",151472.000,"cc",28280.440,6.00,6,0.100,132572.000,0.200,14903.000,0.300,2141.000,0.500,1404.000,1.000,452.000,5.000,0
"04/04/08","22:04:16",176627.000,"cc",28336.484,6.00,6,0.100,154882.000,0.200,17728.000,0.300,2138.000,0.500,1426.000,1.000,453.000,5.000,0
"04/04/08","22:04:22",153448.000,"cc",28327.022,6.00,6,0.100,134184.000,0.200,15054.000,0.300,2176.000,0.500,1491.000,1.000,543.000,5.000,0
"04/04/08","22:04:28",220232.000,"cc",28337.107,6.00,6,0.100,192312.000,0.200,23556.000,0.300,2425.000,0.500,1480.000,1.000,459.000,5.000,0
"04/04/08","22:04:34",226497.000,"cc",28335.781,6.00,6,0.100,198287.000,0.200,23963.000,0.300,2430.000,0.500,1374.000,1.000,443.000,5.000,0
"04/04/08","22:04:40",113071.000,"cc",28318.584,6.00,6,0.100,99620.000,0.200,10373.000,0.300,1570.000,0.500,1149.000,1.000,359.000,5.000,0
"04/04/08","22:04:46",135772.000,"cc",28320.389,6.00,6,0.100,119027.000,0.200,13085.000,0.300,1868.000,0.500,1289.000,1.000,503.000,5.000,0
"04/04/08","22:04:52",144757.000,"cc",28335.553,6.00,6,0.100,127432.000,0.200,13694.000,0.300,1839.000,0.500,1316.000,1.000,476.000,5.000,0
"04/04/08","22:04:58",164624.000,"cc",28358.438,6.00,6,0.100,143219.000,0.200,16722.000,0.300,2425.000,0.500,1696.000,1.000,562.000,5.000,0
"04/04/08","22:05:04",133193.000,"cc",28323.611,6.00,6,0.100,115553.000,0.200,12938.000,0.300,2323.000,0.500,1739.000,1.000,640.000,5.000,0
"04/04/08","22:05:10",142783.000,"cc",28248.494,6.00,6,0.100,123713.000,0.200,14220.000,0.300,2402.000,0.500,1781.000,1.000,667.000,5.000,0
"04/04/08","22:05:16",94567.000,"cc",28262.477,6.00,6,0.100,81554.000,0.200,8813.000,0.300,1986.000,0.500,1598.000,1.000,616.000,5.000,0
"04/04/08","22:05:22",125584.000,"cc",28244.697,6.00,6,0.100,108186.000,0.200,12249.000,0.300,2512.000,0.500,1943.000,1.000,694.000,5.000,0
"04/04/08","22:05:28",161345.000,"cc",28305.594,6.00,6,0.100,140386.000,0.200,16186.000,0.300,2499.000,0.500,1701.000,1.000,573.000,5.000,0
"04/04/08","22:05:34",199271.000,"cc",28337.846,6.00,6,0.100,172944.000,0.200,20974.000,0.300,2851.000,0.500,1873.000,1.000,629.000,5.000,0
"04/04/08","22:05:40",126571.000,"cc",28300.652,6.00,6,0.100,110890.000,0.200,11936.000,0.300,1912.000,0.500,1388.000,1.000,445.000,5.000,0
"04/04/08","22:05:46",207153.000,"cc",28310.307,6.00,6,0.100,180990.000,0.200,21659.000,0.300,2434.000,0.500,1542.000,1.000,528.000,5.000,0
"04/04/08","22:05:52",117149.000,"cc",28335.203,6.00,6,0.100,103517.000,0.200,10613.000,0.300,1490.000,0.500,1126.000,1.000,403.000,5.000,0
"04/04/08","22:05:58",114888.000,"cc",28320.447,6.00,6,0.100,100973.000,0.200,10615.000,0.300,1580.000,0.500,1309.000,1.000,411.000,5.000,0
"04/04/08","22:06:04",183366.000,"cc",28329.662,6.00,6,0.100,161310.000,0.200,18298.000,0.300,1965.000,0.500,1330.000,1.000,463.000,5.000,0
"04/04/08","22:06:10",180161.000,"cc",28256.279,6.00,6,0.100,158596.000,0.200,17785.000,0.300,2009.000,0.500,1321.000,1.000,450.000,5.000,0
"04/04/08","22:06:16",210518.000,"cc",28382.481,6.00,6,0.100,183348.000,0.200,22065.000,0.300,2677.000,0.500,1788.000,1.000,640.000,5.000,0
"04/04/08","22:06:22",151333.000,"cc",28335.191,6.00,6,0.100,132728.000,0.200,14517.000,0.300,2022.000,0.500,1547.000,1.000,519.000,5.000,0
"04/04/08","22:06:28",166459.000,"cc",28310.063,6.00,6,0.100,145685.000,0.200,16518.000,0.300,2211.000,0.500,1528.000,1.000,517.000,5.000,0
"04/04/08","22:06:34",155117.000,"cc",28260.525,6.00,6,0.100,136271.000,0.200,14875.000,0.300,1969.000,0.500,1487.000,1.000,515.000,5.000,0
"04/04/08","22:06:40",153488.000,"cc",28312.924,6.00,6,0.100,133984.000,0.200,14977.000,0.300,2269.000,0.500,1712.000,1.000,546.000,5.000,0
"04/04/08","22:06:46",172479.000,"cc",28348.356,6.00,6,0.100,151177.000,0.200,17221.000,0.300,2194.000,0.500,1398.000,1.000,489.000,5.000,0
"04/04/08","22:06:52",268779.000,"cc",28340.650,6.00,6,0.100,235629.000,0.200,29283.000,0.300,2353.000,0.500,1121.000,1.000,393.000,5.000,0
"04/04/08","22:06:58",259315.000,"cc",28395.272,6.00,6,0.100,227407.000,0.200,27898.000,0.300,2319.000,0.500,1252.000,1.000,439.000,5.000,0
"04/04/08","22:07:04",214909.000,"cc",28306.502,6.00,6,0.100,189307.000,0.200,21721.000,0.300,2132.000,0.500,1283.000,1.000,466.000,5.000,0
"04/04/08","22:07:10",167035.000,"cc",28280.941,6.00,6,0.100,146908.000,0.200,16409.000,0.300,1976.000,0.500,1294.000,1.000,448.000,5.000,0
"04/04/08","22:07:16",221480.000,"cc",28365.561,6.00,6,0.100,193727.000,0.200,24204.000,0.300,2055.000,0.500,1088.000,1.000,406.000,5.000,0
"04/04/08","22:07:22",235663.000,"cc",28298.883,6.00,6,0.100,207264.000,0.200,24834.000,0.300,2079.000,0.500,1102.000,1.000,384.000,5.000,0
"04/04/08","22:07:28",235772.000,"cc",28259.145,6.00,6,0.100,207764.000,0.200,24836.000,0.300,1921.000,0.500,917.000,1.000,334.000,5.000,0
"04/04/08","22:07:34",257514.000,"cc",28307.895,6.00,6,0.100,226819.000,0.200,27361.000,0.300,2021.000,0.500,999.000,1.000,314.000,5.000,0
"04/04/08","22:07:40",214546.000,"cc",28364.215,6.00,6,0.100,189028.000,0.200,21627.000,0.300,2180.000,0.500,1293.000,1.000,418.000,5.000,0
"04/04/08","22:07:46",198499.000,"cc",28269.647,6.00,6,0.100,174823.000,0.200,20032.000,0.300,2010.000,0.500,1220.000,1.000,414.000,5.000,0
"04/04/08","22:07:52",186100.000,"cc",28334.395,6.00,6,0.100,164559.000,0.200,18185.000,0.300,1873.000,0.500,1129.000,1.000,354.000,5.000,0
"04/04/08","22:07:58",130929.000,"cc",28357.527,6.00,6,0.100,116342.000,0.200,11755.000,0.300,1377.000,0.500,1081.000,1.000,374.000,5.000,0
"04/04/08","22:08:04",169521.000,"cc",28286.010,6.00,6,0.100,149426.000,0.200,16235.000,0.300,2013.000,0.500,1405.000,1.000,442.000,5.000,0
"04/04/08","22:08:10",166706.000,"cc",28365.438,6.00,6,0.100,147472.000,0.200,15785.000,0.300,1834.000,0.500,1211.000,1.000,404.000,5.000,0
"04/04/08","22:08:16",131966.000,"cc",28287.488,6.00,6,0.100,116786.000,0.200,11997.000,0.300,1638.000,0.500,1128.000,1.000,417.000,5.000,0
"04/04/08","22:08:22",132857.000,"cc",28289.332,6.00,6,0.100,116996.000,0.200,12168.000,0.300,1820.000,0.500,1399.000,1.000,474.000,5.000,0
"04/04/08","22:08:28",134087.000,"cc",28365.065,6.00,6,0.100,117802.000,0.200,12501.000,0.300,1897.000,0.500,1408.000,1.000,479.000,5.000,0
"04/04/08","22:08:34",93740.000,"cc",28290.711,6.00,6,0.100,82908.000,0.200,7796.000,0.300,1466.000,0.500,1168.000,1.000,402.000,5.000,0
"04/04/08","22:08:40",105928.000,"cc",28326.979,6.00,6,0.100,93362.000,0.200,9248.000,0.300,1578.000,0.500,1270.000,1.000,470.000,5.000,0
"04/04/08","22:08:46",77447.000,"cc",28320.457,6.00,6,0.100,68607.000,0.200,6153.000,0.300,1261.000,0.500,1060.000,1.000,366.000,5.000,0
"04/04/08","22:08:52",99940.000,"cc",28338.865,6.00,6,0.100,88367.000,0.200,8491.000,0.300,1549.000,0.500,1136.000,1.000,397.000,5.000,0
"04/04/08","22:08:58",104412.000,"cc",28306.834,6.00,6,0.100,92106.000,0.200,9156.000,0.300,1530.000,0.500,1187.000,1.000,433.000,5.000,0
"04/04/08","22:09:04",101095.000,"cc",28319.518,6.00,6,0.100,88752.000,0.200,8853.000,0.300,1676.000,0.500,1371.000,1.000,443.000,5.000,0
"04/04/08","22:09:10",85927.000,"cc",28242.281,6.00,6,0.100,75607.000,0.200,7110.000,0.300,1477.000,0.500,1288.000,1.000,445.000,5.000,0
"04/04/08","22:09:16",83408.000,"cc",28360.135,6.00,6,0.100,73310.000,0.200,6954.000,0.300,1473.000,0.500,1243.000,1.000,428.000,5.000,0
"04/04/08","22:09:22",67589.000,"cc",28330.643,6.00,6,0.100,60098.000,0.200,5265.000,0.300,1026.000,0.500,877.000,1.000,323.000,5.000,0
"04/04/08","22:09:28",75856.000,"cc",28340.811,6.00,6,0.100,66939.000,0.200,6266.000,0.300,1227.000,0.500,1032.000,1.000,392.000,5.000,0
"04/04/08","22:09:34",47641.000,"cc",28306.367,6.00,6,0.100,41743.000,0.200,3407.000,0.300,1052.000,0.500,1055.000,1.000,384.000,5.000,0
"04/04/08","22:09:40",53252.000,"cc",28264.496,6.00,6,0.100,46034.000,0.200,4106.000,0.300,1393.000,0.500,1264.000,1.000,455.000,5.000,0
"04/04/08","22:09:46",59105.000,"cc",28288.281,6.00,6,0.100,51125.000,0.200,4770.000,0.300,1429.000,0.500,1312.000,1.000,469.000,5.000,0
"04/04/08","22:09:52",78883.000,"cc",28345.977,6.00,6,0.100,68143.000,0.200,7015.000,0.300,1733.000,0.500,1533.000,1.000,459.000,5.000,0
"04/04/08","22:09:58",72827.000,"cc",28323.875,6.00,6,0.100,62565.000,0.200,6446.000,0.300,1798.000,0.500,1532.000,1.000,486.000,5.000,0
"04/04/08","22:10:04",69489.000,"cc",28334.066,6.00,6,0.100,58508.000,0.200,6374.000,0.300,2196.000,0.500,1852.000,1.000,559.000,5.000,0
"04/04/08","22:10:10",60452.000,"cc",28364.828,6.00,6,0.100,49945.000,0.200,5651.000,0.300,2167.000,0.500,2030.000,1.000,659.000,5.000,0
"04/04/08","22:10:16",63457.000,"cc",28241.930,6.00,6,0.100,52206.000,0.200,6092.000,0.300,2476.000,0.500,1991.000,1.000,692.000,5.000,0
"04/04/08","22:10:22",55461.000,"cc",28250.590,6.00,6,0.100,45245.000,0.200,5200.000,0.300,2313.000,0.500,2020.000,1.000,683.000,5.000,0
"04/04/08","22:10:28",56805.000,"cc",28365.465,6.00,6,0.100,46193.000,0.200,5456.000,0.300,2343.000,0.500,2074.000,1.000,739.000,5.000,0
"04/04/08","22:10:34",51708.000,"cc",28309.277,6.00,6,0.100,42037.000,0.200,4853.000,0.300,2215.000,0.500,1962.000,1.000,641.000,5.000,0
"04/04/08","22:10:40",59615.000,"cc",28345.221,6.00,6,0.100,50476.000,0.200,5149.000,0.300,1802.000,0.500,1630.000,1.000,558.000,5.000,0
"04/04/08","22:10:46",63453.000,"cc",28293.471,6.00,6,0.100,54053.000,0.200,5489.000,0.300,1794.000,0.500,1572.000,1.000,545.000,5.000,0
"04/04/08","22:10:52",54847.000,"cc",28319.574,6.00,6,0.100,47136.000,0.200,4526.000,0.300,1428.000,0.500,1307.000,1.000,450.000,5.000,0
"04/04/08","22:10:58",64938.000,"cc",28318.842,6.00,6,0.100,56972.000,0.200,4979.000,0.300,1356.000,0.500,1216.000,1.000,415.000,5.000,0
"04/04/08","22:11:04",64599.000,"cc",28325.811,6.00,6,0.100,56793.000,0.200,5076.000,0.300,1185.000,0.500,1149.000,1.000,396.000,5.000,0
"04/04/08","22:11:10",101983.000,"cc",28321.561,6.00,6,0.100,89999.000,0.200,8728.000,0.300,1557.000,0.500,1253.000,1.000,446.000,5.000,0
"04/04/08","22:11:16",65000.000,"cc",28345.190,6.00,6,0.100,55501.000,0.200,5526.000,0.300,1814.000,0.500,1613.000,1.000,546.000,5.000,0
"04/04/08","22:11:22",62064.000,"cc",28247.449,6.00,6,0.100,52127.000,0.200,5598.000,0.300,1953.000,0.500,1787.000,1.000,599.000,5.000,0
"04/04/08","22:11:28",63883.000,"cc",28348.891,6.00,6,0.100,54099.000,0.200,5663.000,0.300,1920.000,0.500,1658.000,1.000,543.000,5.000,0
"04/04/08","22:11:34",58602.000,"cc",28336.152,6.00,6,0.100,49668.000,0.200,5031.000,0.300,1756.000,0.500,1591.000,1.000,556.000,5.000,0
"04/04/08","22:11:40",59663.000,"cc",28317.215,6.00,6,0.100,50311.000,0.200,5188.000,0.300,1977.000,0.500,1607.000,1.000,580.000,5.000,0
"04/04/08","22:11:46",64206.000,"cc",28375.356,6.00,6,0.100,54822.000,0.200,5532.000,0.300,1820.000,0.500,1508.000,1.000,524.000,5.000,0
"04/04/08","22:11:52",54537.000,"cc",28266.117,6.00,6,0.100,45658.000,0.200,4833.000,0.300,1857.000,0.500,1630.000,1.000,559.000,5.000,0
"04/04/08","22:11:58",54239.000,"cc",28294.859,6.00,6,0.100,44968.000,0.200,4760.000,0.300,2060.000,0.500,1804.000,1.000,647.000,5.000,0
"04/04/08","22:12:04",60841.000,"cc",28339.031,6.00,6,0.100,50741.000,0.200,5492.000,0.300,2135.000,0.500,1891.000,1.000,582.000,5.000,0
"04/04/08","22:12:10",59190.000,"cc",28340.023,6.00,6,0.100,49801.000,0.200,5326.000,0.300,1909.000,0.500,1646.000,1.000,508.000,5.000,0
"04/04/08","22:12:16",54049.000,"cc",28307.410,6.00,6,0.100,45533.000,0.200,4549.000,0.300,1809.000,0.500,1611.000,1.000,547.000,5.000,0
"04/04/08","22:12:22",57329.000,"cc",28269.420,6.00,6,0.100,48244.000,0.200,4939.000,0.300,1875.000,0.500,1680.000,1.000,591.000,5.000,0
"04/04/08","22:12:28",46866.000,"cc",28343.932,6.00,6,0.100,40129.000,0.200,3581.000,0.300,1380.000,0.500,1328.000,1.000,448.000,5.000,0
"04/04/08","22:12:34",44661.000,"cc",28314.293,6.00,6,0.100,37869.000,0.200,3490.000,0.300,1505.000,0.500,1325.000,1.000,472.000,5.000,0
"04/04/08","22:12:40",49103.000,"cc",28296.152,6.00,6,0.100,41462.000,0.200,4124.000,0.300,1615.000,0.500,1413.000,1.000,489.000,5.000,0
"04/04/08","22:12:46",52668.000,"cc",28319.906,6.00,6,0.100,44080.000,0.200,4601.000,0.300,1871.000,0.500,1598.000,1.000,518.000,5.000,0
"04/04/08","22:12:52",52647.000,"cc",28354.291,6.00,6,0.100,43514.000,0.200,4738.000,0.300,2063.000,0.500,1729.000,1.000,603.000,5.000,0
"04/04/08","22:12:58",51982.000,"cc",28352.430,6.00,6,0.100,43287.000,0.200,4664.000,0.300,1880.000,0.500,1613.000,1.000,538.000,5.000,0
"04/04/08","22:13:04",47252.000,"cc",28307.565,6.00,6,0.100,39250.000,0.200,4096.000,0.300,1779.000,0.500,1592.000,1.000,535.000,5.000,0
"04/04/08","22:13:10",52555.000,"cc",28286.690,6.00,6,0.100,43238.000,0.200,4929.000,0.300,1981.000,0.500,1784.000,1.000,623.000,5.000,0
"04/04/08","22:13:16",47884.000,"cc",28305.719,6.00,6,0.100,39317.000,0.200,4299.000,0.300,2012.000,0.500,1671.000,1.000,585.000,5.000,0
"04/04/08","22:13:22",52042.000,"cc",28372.145,6.00,6,0.100,44008.000,0.200,4306.000,0.300,1706.000,0.500,1502.000,1.000,520.000,5.000,0
"04/04/08","22:13:28",76488.000,"cc",28259.203,6.00,6,0.100,66568.000,0.200,6571.000,0.300,1536.000,0.500,1354.000,1.000,459.000,5.000,0
"04/04/08","22:13:34",77039.000,"cc",28355.457,6.00,6,0.100,67474.000,0.200,6408.000,0.300,1465.000,0.500,1249.000,1.000,443.000,5.000,0
"04/04/08","22:13:40",64939.000,"cc",28276.033,6.00,6,0.100,56807.000,0.200,5235.000,0.300,1262.000,0.500,1236.000,1.000,399.000,5.000,0
"04/04/08","22:13:46",63819.000,"cc",28263.637,6.00,6,0.100,55040.000,0.200,5404.000,0.300,1604.000,0.500,1323.000,1.000,448.000,5.000,0
"04/04/08","22:13:52",71303.000,"cc",28333.139,6.00,6,0.100,61200.000,0.200,6318.000,0.300,1820.000,0.500,1479.000,1.000,486.000,5.000,0
"04/04/08","22:13:58",65201.000,"cc",28368.641,6.00,6,0.100,55594.000,0.200,5623.000,0.300,1840.000,0.500,1640.000,1.000,504.000,5.000,0
"04/04/08","22:14:04",56919.000,"cc",28336.072,6.00,6,0.100,49179.000,0.200,4561.000,0.300,1407.000,0.500,1321.000,1.000,451.000,5.000,0
"04/04/08","22:14:10",62367.000,"cc",28333.238,6.00,6,0.100,54077.000,0.200,5156.000,0.300,1495.000,0.500,1213.000,1.000,426.000,5.000,0
"04/04/08","22:14:16",71746.000,"cc",28277.041,6.00,6,0.100,63156.000,0.200,5857.000,0.300,1260.000,0.500,1087.000,1.000,386.000,5.000,0
"04/04/08","22:14:22",78991.000,"cc",28298.750,6.00,6,0.100,69098.000,0.200,6701.000,0.300,1571.000,0.500,1241.000,1.000,380.000,5.000,0
"04/04/08","22:14:28",72175.000,"cc",28296.221,6.00,6,0.100,62032.000,0.200,6205.000,0.300,1831.000,0.500,1556.000,1.000,551.000,5.000,0
"04/04/08","22:14:34",78099.000,"cc",28350.107,6.00,6,0.100,66799.000,0.200,7168.000,0.300,1928.000,0.500,1631.000,1.000,573.000,5.000,0
"04/04/08","22:14:40",46305.000,"cc",28358.434,6.00,6,0.100,39649.000,0.200,3567.000,0.300,1351.000,0.500,1279.000,1.000,459.000,5.000,0
"04/04/08","22:14:46",59712.000,"cc",28279.268,6.00,6,0.100,50762.000,0.200,5136.000,0.300,1740.000,0.500,1543.000,1.000,531.000,5.000,0
"04/04/08","22:14:52",61649.000,"cc",28292.481,6.00,6,0.100,51637.000,0.200,5671.000,0.300,2008.000,0.500,1756.000,1.000,577.000,5.000,0
"04/04/08","22:14:58",61177.000,"cc",28287.684,6.00,6,0.100,52356.000,0.200,5280.000,0.300,1678.000,0.500,1357.000,1.000,506.000,5.000,0
"04/04/08","22:15:04",83638.000,"cc",28338.016,6.00,6,0.100,72035.000,0.200,7756.000,0.300,1808.000,0.500,1546.000,1.000,493.000,5.000,0
"04/04/08","22:15:10",76671.000,"cc",28351.264,6.00,6,0.100,66183.000,0.200,6877.000,0.300,1646.000,0.500,1497.000,1.000,468.000,5.000,0
"04/04/08","22:15:16",71487.000,"cc",28295.092,6.00,6,0.100,61216.000,0.200,6390.000,0.300,1807.000,0.500,1505.000,1.000,569.000,5.000,0
"04/04/08","22:15:22",51766.000,"cc",28366.420,6.00,6,0.100,44295.000,0.200,4178.000,0.300,1488.000,0.500,1333.000,1.000,472.000,5.000,0
"04/04/08","22:15:28",73497.000,"cc",28282.371,6.00,6,0.100,63334.000,0.200,6645.000,0.300,1638.000,0.500,1408.000,1.000,472.000,5.000,0
"04/04/08","22:15:34",100097.000,"cc",28282.693,6.00,6,0.100,87319.000,0.200,9252.000,0.300,1651.000,0.500,1369.000,1.000,506.000,5.000,0
"04/04/08","22:15:40",66690.000,"cc",28301.482,6.00,6,0.100,57995.000,0.200,5494.000,0.300,1478.000,0.500,1304.000,1.000,419.000,5.000,0
"04/04/08","22:15:46",63261.000,"cc",28328.764,6.00,6,0.100,55384.000,0.200,5030.000,0.300,1260.000,0.500,1171.000,1.000,416.000,5.000,0
"04/04/08","22:15:52",75323.000,"cc",28305.190,6.00,6,0.100,66070.000,0.200,6382.000,0.300,1340.000,0.500,1146.000,1.000,385.000,5.000,0
"04/04/08","22:15:58",77373.000,"cc",28309.186,6.00,6,0.100,67224.000,0.200,6791.000,0.300,1531.000,0.500,1337.000,1.000,490.000,5.000,0
"04/04/08","22:16:04",77115.000,"cc",28280.522,6.00,6,0.100,66215.000,0.200,7047.000,0.300,1767.000,0.500,1562.000,1.000,524.000,5.000,0
"04/04/08","22:16:10",91150.000,"cc",28357.621,6.00,6,0.100,79177.000,0.200,8206.000,0.300,1851.000,0.500,1450.000,1.000,466.000,5.000,0
"04/04/08","22:16:16",69107.000,"cc",28345.518,6.00,6,0.100,59785.000,0.200,6075.000,0.300,1521.000,0.500,1296.000,1.000,430.000,5.000,0